STARLINK-5184, 54087

Orbit data source: Space-Track

STARLINK-5184, 54087 is a payload satellite owned by SpaceX/Seattle (US) in LEO that was launched on Thu, 20 Oct 2022 UTC via an FALCON 9 launch vehicle from the Air Force Eastern Test Range (AFETR). Payload-class satellites include a variety of spacecraft equipped with specific instruments for various scientific and technological missions. These include communications satellites like Starlink; space stations such as the ISS; scientific satellites like the Hubble; Earth observation satellites from companies like Planet Labs, Umbra, and HawkEye 360; GPS; miniature CubeSats for education and research; and military/defense satellites.

Loading next visibility...
Identifier
54087, 2022-136AN
Orbit
LEO
Country
Flag of USUS
Related business
Manufacturer
SpaceX/Seattle
Mission
Operational Commercial Communications
Bus & Motor
STARLINK, Unknown motor
Mass
305 kg wet, ~290 kg dry
Launch date (UTC)
2022-10-20 (3 years ago)
Launch vehicle
FALCON 9
Launch site
Air Force Eastern Test Range (AFETR)
Object type
Payload
Rocket body
Debris
Shape & HBR
Box + 1 Pan, 4.4 m
Radar Cross Section
13.562 m², Large (>1 m²)

Expand to show TLE details & history
Last TLE update: 21 hours ago

TLE from 21 hours ago
0 STARLINK-5184
1 54087U 22136AN  25260.63347330  .00000534  00000-0  51660-4 0  9996
2 54087  53.2190  30.6429 0001345  89.8125 270.3021 15.08841100160860
Epoch: 2025-09-17T15:12Z
TLE epoch observation values (Epoch: 2025-09-17T15:12:12.093Z)
Latitude
-0.00003°
Longitude
165.78587°
Altitude
540.633 km
Speed
7.593 km/s
True Right ascension
02h 02m 34s
True Declination
0° 00' 00"
Sunlit
Object was in full shadow at epoch
Visualization orbit readout
Latitude
Unknown
Longitude
Unknown
Altitude
Unknown
Speed
Unknown
Apparent Right ascension
Unknown
Apparent Declination
Unknown
Sunlit
N/A
Visualization observer readout
Local Sidereal Time
04:59:33
Azimuth
Unknown
Elevation
Unknown
Doppler factor
Unknown
Orbital elements
Apogee altitude
540.915 km
Perigee altitude
539.054 km
Semi-major axis
6,918.122 km
Eccentricity
0.00013
Inclination
53.219°
RAAN
30.6429°
Arg. of periapsis
89.8125°
True anomaly
270.28669°
Mean anomaly
270.3021°
Eccentric anomaly
270.29439°
Mean motion
3.77191 °/min
Orbital period
95.44 mins
BSTAR
0.00005166
Loading maneuver chart data...
Computing Atmospheric mass density...
Loading historical data...
Loading historical data...
Loading historical data...
Loading historical data...
Loading historical data...
Loading historical data...
Loading historical data...

Documentation

Showing up to 5 results
|